Location: Warszawa
(52.2500°N, 21.0000°E)
Time: 01:59:09
(UTC+01:00)

deb Explorer IX - All Passes

Search period start: 29 February 2024 00:00
Search period end: 10 March 2024 00:00
Orbit: 516 x 916 km, 38.7° (Epoch: 28 February)

Date Brightness Start Highest point End Pass type
(mag) Time Alt. Az. Time Alt. Az. Time Alt. Az.
29 Feb - 07:38:57 10° SSE 07:40:10 11° SSE 07:41:25 10° SE daylight
29 Feb - 09:19:07 10° SSW 09:23:32 21° SSE 09:28:00 10° ESE daylight
29 Feb - 11:02:30 10° SW 11:07:13 23° S 11:11:53 10° SE daylight
29 Feb - 12:47:28 10° SW 12:50:43 15° SSW 12:53:56 10° S daylight
01 Mar - 08:23:49 10° SSW 08:27:44 18° SSE 08:31:46 10° ESE daylight
01 Mar - 10:06:36 10° SW 10:11:21 23° S 10:16:08 10° SE daylight
01 Mar - 11:50:57 10° WSW 11:54:59 18° SSW 11:58:57 10° SSE daylight
02 Mar - 07:28:52 10° S 07:32:00 15° SSE 07:35:12 10° SE daylight
02 Mar - 09:10:54 10° SW 09:15:30 22° S 09:20:12 10° SE daylight
02 Mar - 10:54:45 10° WSW 10:59:09 20° SSW 11:03:35 10° SSE daylight
02 Mar - 12:41:27 10° SW 12:42:32 10° SSW 12:43:37 10° SSW daylight
03 Mar - 06:34:48 10° SSE 06:36:18 11° SSE 06:37:49 10° SE daylight
03 Mar - 08:15:21 10° SW 08:19:38 21° SSE 08:24:05 10° ESE daylight
03 Mar - 09:58:43 10° SW 10:03:17 22° S 10:07:57 10° SE daylight
03 Mar - 11:43:48 10° SW 11:46:48 14° SSW 11:49:48 10° S daylight
04 Mar - 07:20:01 10° SSW 07:23:48 18° SSE 07:27:46 10° ESE daylight
04 Mar - 09:02:51 10° SW 09:07:24 23° S 09:12:06 10° SE daylight
04 Mar - 10:47:13 10° WSW 10:51:00 17° SSW 10:54:48 10° SSE daylight
05 Mar - 06:25:02 10° S 06:28:02 15° SSE 06:31:08 10° SE daylight
05 Mar - 08:07:08 10° SW 08:11:29 22° S 08:16:04 10° SE daylight
05 Mar - 09:50:59 10° WSW 09:55:08 19° SSW 09:59:23 10° SSE daylight
06 Mar - 05:30:56 10° SSE 05:32:18 11° SSE 05:33:42 10° SE visible
06 Mar - 07:11:34 10° SW 07:15:36 20° S 07:19:52 10° SE daylight
06 Mar - 08:54:57 10° SW 08:59:13 21° S 09:03:40 10° SE daylight
06 Mar - 10:40:16 10° SW 10:42:42 12° SSW 10:45:10 10° S daylight
07 Mar - 06:16:14 10° SSW 06:19:45 17° SSE 06:23:29 10° SE daylight
07 Mar - 07:59:04 10° SW 08:03:18 21° S 08:07:46 10° SE daylight
07 Mar - 09:43:32 10° SW 09:46:52 15° SSW 09:50:16 10° SSE daylight
08 Mar - 05:21:14 10° S 05:23:57 14° SSE 05:26:48 10° SE visible
08 Mar - 07:03:21 10° SW 07:07:23 21° S 07:11:40 10° SE daylight
08 Mar - 08:47:14 10° SW 08:50:58 18° SSW 08:54:50 10° SSE daylight
09 Mar - 04:27:15 10° SSE 04:28:12 10° SSE 04:29:10 10° SE visible
09 Mar - 06:07:47 10° SW 06:11:28 19° S 06:15:25 10° SE daylight
09 Mar - 07:51:11 10° SW 07:55:02 19° S 07:59:06 10° SSE daylight
09 Mar - 09:37:09 10° SW 09:38:28 11° SSW 09:39:48 10° SSW daylight
